SCP
0 0 0 0 0 0 0 0 0 0 0 0 0 0 0 0 0 0 0 0 0 0 0 0 0 0 0 0 0 0 0 0 0 0 0 0 0 0 0 0 0 0 0
0 0 0 0 0 0 0 0 0 0 0 0 0 0 0 0 0 0 0 0 0 0 0 0 0 0 0 0 0 0 0 0 0 0 0 0 0 0 0 0 0 0 0
0 0 0 0 0 0 0 0 0 0 0 0 0 0 0 0 0 0 0 0 0 0 0 0 0 0 0 0 0 0 0 0 0 0 0 0 0 0 0 0 0 0 0
0 0 0 0 0 0 0 0 0 0 0 0 0 0 0 0 0 0 0 0 0 0 0 0 0 0 0 0 0 0 0 0 0 0 0 0 0 0 0 0 0 0 0
0 0 0 0 0 0 0 0 0 0 0 0 0 0 0 0 0 0 0 0 0 0 0 0 0 0 0 0 0 0 0 0 0 0 0 0 0 0 0 0 0 0 0
0 0 0 0 0 0 0 0 0 0 0 0 0 0 0 0 0 0 0 0 0 0 0 0 0 0 0 0 0 0 0 0 0 0 0 0 0 0 0 0 0 0 0
0 0 0 0 0 0 0 0 0 0 0 0 0 0 0 0 0 0 0 0 0 0 0 0 0 0 0 0 0 0 0 0 0 0 0 0 0 0 0 0 0 0 0
0 0 0 0 0 0 0 0 0 0 0 0 0 0 0 0 0 0 0 0 0 0 0 0 0 0 0 0 0 0 0 0 0 0 0 0 0 0 0 0 0 0 0
0 0 0 0 0 0 0 0 0 0 0 0 0 0 0 0 0 0 0 0 0 0 0 0 0 0 0 0 0 0 0 0 0 0 0 0 0 0 0 0 0 0 0
0 0 0 0 0 0 0 0 0 0 0 0 0 0 0 0 0 0 0 0 0 0 0 0 0 0 0 0 0 0 0 0 0 0 0 0 0 0 0 0 0 0 0
0 0 0 0 0 0 0 0 0 0 0 0 0 0 0 0 0 0 0 0 0 0 0 0 0 0 0 0 0 0 0 0 0 0 0 0 0 0 0 0 0 0 0
0 0 0 0 0 0 0 0 0 0 0 0 0 0 0 0 0 0 0 0 0 0 0 0 0 0 0 0 0 0 0 0 0 0 0 0 0 0 0 0 0 0 0
0 0 0 0 0 0 0 0 0 0 0 0 0 0 0 0 0 0 0 0 0 0 0 0 0 0 0 0 0 0 0 0 0 0 0 0 0 0 0 0 0 0 0
0 0 0 0 0 0 0 0 0 0 0 0 0 0 0 0 0 0 0 0 0 0 0 0 0 0 0 0 0 0 0 0 0 0 0 0 0 0 0 0 0 0 0
0 0 0 0 0 0 0 0 0 0 0 0 0 0 0 0 0 0 0 0 0 0 0 0 0 0 0 0 0 0 0 0 0 0 0 0 0 0 0 0 0 0 0
0 0 0 0 0 0 0 0 0 0 0 0 0 0 0 0 0 0 0 0 0 0 0 0 0 0 0 0 0 0 0 0 0 0 0 0 0 0 0 0 0 0 0
0 0 0 0 0 0 0 0 0 0 0 0 0 0 0 0 0 0 0 0 0 0 0 0 0 0 0 0 0 0 0 0 0 0 0 0 0 0 0 0 0 0 0
0 0 0 0 0 0 0 0 0 0 0 0 0 0 0 0 0 0 0 0 0 0 0 0 0 0 0 0 0 0 0 0 0 0 0 0 0 0 0 0 0 0 0
0 0 0 0 0 0 0 0 0 0 0 0 0 0 0 0 0 0 0 0 0 0 0 0 0 0 0 0 0 0 0 0 0 0 0 -0 0 0 0 0 0 0 -0
0 0 0 0 0 0 0 0 0 0 0 0 0 0 0 0 0 0 0 0 0 0 0 0 0 0 0 0 0 0 0 0 0 0 -0 0 0 0 0 0 0 0 0
0 0 0 0 0 0 0 0 0 0 0 0 0 0 0 0 0 0 0 0 0 0 0 0 0 0 0 0 0 0 0 0 0 -0 -0 0 0 0 0 0 0 0 0
0 0 0 0 0 0 0 0 0 0 0 0 0 0 0 0 0 0 0 0 0 0 0 0 0 0 0 0 0 0 0 0 0 -0 -0 0 0 0 0 0 0 0 0
0 0 0 0 0 0 0 0 0 0 0 0 0 0 0 0 0 0 0 0 0 0 0 0 0 0 0 0 0 0 0 0 0 -0 -0 -0 -0 0 0 0 0 0 0
0 0 0 0 0 0 0 0 0 0 0 0 0 0 0 0 0 0 0 0 0 0 0 0 0 0 0 0 0 0 0 0 0 -0 -0 -0 -0 -0 -0 0 0 -0 -0
0 0 0 0 0 0 0 0 0 0 0 0 0 0 0 0 0 0 0 0 0 0 0 0 0 0 0 0 0 0 0 0 0 -0 -0 -0 -0 0 -0 -0 -0 -0 -0
0 0 0 0 0 0 0 0 0 0 0 0 0 0 0 0 0 0 0 0 0 0 0 0 0 0 0 0 0 0 0 0 -0 -0 -0 -0 -0 -0 0 0 -0 -0 -0
Wind_Speed_500mb
95 101 102 101 99 96 91 91 90 87 83 78 70 64 58 51 52 53 52 51 47 43 41 44 47 51 57 59 61 64 66 66 90 150 122 122 121 123 125 121 119 118 118
93 103 107 107 103 99 94 93 90 87 83 78 72 67 62 57 59 55 52 50 49 44 44 48 50 54 59 61 63 66 67 69 74 109 132 127 123 120 121 114 115 112 108
91 99 105 108 106 104 97 92 88 86 85 80 75 68 62 61 59 55 51 48 48 45 45 48 53 58 61 62 63 68 68 66 70 86 126 120 126 120 116 105 109 117 108
92 98 103 105 103 105 102 91 86 86 86 83 75 70 67 64 59 55 51 49 46 46 46 50 56 59 62 63 64 64 67 69 74 84 104 122 107 108 103 104 110 100 103
97 97 100 99 99 102 100 89 83 84 86 84 79 75 72 66 58 52 50 49 45 45 46 51 56 57 58 56 55 61 64 73 78 83 94 96 106 100 90 98 101 112 108
99 98 98 98 99 102 96 91 86 86 88 88 84 79 71 62 54 52 52 46 47 44 47 52 55 56 54 54 52 56 61 73 85 89 98 99 112 102 102 98 99 104 118
99 97 96 94 98 98 93 91 88 91 89 92 86 77 68 58 52 50 48 51 44 44 47 51 55 53 52 59 64 62 66 70 75 87 106 111 114 111 103 108 103 108 119
91 93 93 93 94 93 91 90 89 89 92 95 87 77 66 53 53 50 52 44 41 43 44 48 52 50 50 60 64 71 79 88 92 87 94 108 109 115 107 111 118 118 129
81 88 92 90 91 93 92 91 90 92 96 97 83 75 64 57 54 56 48 41 39 41 41 44 46 49 58 52 61 79 94 97 80 78 83 87 91 96 96 99 108 98 109
72 80 84 88 91 92 91 93 92 89 95 91 81 72 58 52 61 51 45 36 37 37 41 44 47 51 49 50 63 77 92 96 86 94 97 93 106 116 85 78 91 97 99
72 74 80 83 86 86 89 92 91 93 100 92 81 70 53 62 52 50 39 36 30 32 38 46 46 46 45 55 55 66 73 78 87 98 92 86 87 84 81 69 77 90 97
66 69 75 80 84 87 86 93 91 99 101 90 80 66 62 58 54 44 39 26 24 29 35 37 40 40 50 54 54 57 58 63 69 79 81 82 84 84 81 82 78 93 87
60 63 69 76 80 83 86 93 94 104 101 90 78 65 61 56 48 41 29 24 25 22 23 25 33 40 45 47 49 53 55 59 64 73 80 78 83 91 90 89 87 74 83
54 62 67 72 76 79 84 91 96 108 100 91 78 71 61 56 46 34 27 22 18 17 15 20 29 35 38 47 53 55 57 59 62 67 79 79 86 90 88 82 84 78 86
72 72 72 76 79 82 88 97 106 106 93 78 74 59 65 57 45 35 25 15 14 12 11 19 25 33 43 49 56 60 62 65 69 71 81 79 87 92 88 82 76 86 87
77 75 82 86 89 92 96 102 104 102 90 79 60 62 57 42 42 31 26 25 19 7 11 17 26 35 43 52 61 68 71 72 75 79 85 76 92 91 91 90 85 78 80
88 81 86 93 88 91 96 106 110 91 84 78 69 63 54 47 36 29 25 21 14 5 10 18 26 34 41 50 58 66 75 78 83 85 90 81 92 99 95 91 82 77 78
91 87 90 95 92 89 95 104 103 97 82 65 60 60 56 46 37 29 28 22 12 8 11 18 25 32 39 48 57 66 73 80 86 89 94 84 95 102 98 91 83 79 80
90 87 91 91 87 87 96 101 100 91 84 80 68 54 52 42 38 34 30 20 17 10 10 17 24 30 37 47 55 64 70 80 85 90 93 84 104 102 99 91 87 85 82
79 82 85 85 79 89 101 107 99 91 85 76 72 64 62 59 47 36 28 20 16 5 9 15 21 28 35 45 54 64 71 79 86 88 90 90 110 104 98 95 90 90 85
76 78 77 74 73 81 96 107 99 87 71 70 64 57 52 46 40 32 23 19 11 6 11 15 23 30 35 41 52 61 67 76 83 86 87 103 116 108 102 95 94 86 84
67 70 73 79 83 89 101 101 89 75 71 68 62 55 53 45 37 29 24 15 9 9 13 17 23 31 37 42 49 58 65 74 81 83 89 116 115 111 106 102 95 92 86
62 68 76 78 83 97 97 84 75 70 68 64 62 55 50 45 38 28 21 14 12 10 15 19 23 27 33 36 41 52 60 69 74 78 96 115 113 117 114 106 99 97 94
60 67 73 81 84 85 82 76 71 68 67 62 57 48 44 40 32 28 21 16 11 12 17 22 25 30 33 37 39 44 53 57 70 80 101 108 111 121 117 110 104 107 98
57 64 67 74 81 81 74 70 70 67 62 58 53 47 42 35 30 25 18 14 11 15 19 22 26 29 32 36 39 42 51 54 71 82 94 106 113 117 118 111 112 109 99
50 56 70 77 75 71 68 70 66 61 57 53 49 44 37 32 28 20 15 14 16 20 22 25 28 30 31 35 39 42 49 57 68 81 90 105 113 114 116 115 119 111 106
Wind_Direction_500mb
238 237 236 236 235 237 239 238 237 234 233 232 232 234 238 245 254 261 268 274 276 279 284 286 290 294 295 295 294 293 290 285 282 294 294 299 300 301 302 304 305 303 299
243 241 239 238 238 238 238 237 235 233 232 231 232 232 236 242 251 257 263 270 274 279 283 287 292 295 296 298 299 297 294 294 285 291 300 301 302 304 307 304 306 307 302
245 244 241 241 239 239 239 237 234 231 231 230 230 232 236 242 248 255 261 267 273 279 284 290 296 298 299 302 303 301 300 294 289 288 297 302 305 305 303 298 301 304 300
246 243 241 241 241 240 240 235 232 231 230 229 228 230 234 241 247 254 260 267 272 279 286 293 297 299 302 303 303 299 300 298 294 283 283 291 291 296 296 295 297 294 295
245 242 241 241 241 240 238 235 232 230 229 227 225 227 232 238 244 250 260 268 273 280 290 296 297 300 302 305 295 293 296 295 289 282 279 282 286 289 289 294 292 294 290
244 244 241 239 238 238 236 232 229 228 226 224 224 226 231 237 242 250 259 266 272 283 293 296 299 302 304 305 298 288 287 290 288 286 285 282 282 282 286 284 285 288 288
243 241 239 239 236 235 233 229 226 225 223 222 222 225 231 235 242 252 266 267 277 287 294 297 300 302 307 315 311 295 294 290 285 287 286 283 284 286 286 284 282 281 280
240 240 238 235 234 233 230 227 225 224 222 220 219 224 227 230 241 255 258 265 275 285 289 299 302 310 315 305 306 304 302 299 296 293 287 288 286 288 285 283 283 278 280
238 239 238 234 233 231 228 226 224 222 218 217 217 221 222 230 242 246 254 264 273 280 294 299 307 310 309 304 304 305 304 305 301 297 293 286 284 284 283 284 281 278 274
240 239 236 234 233 232 229 225 222 219 218 216 216 218 219 233 240 246 248 252 266 285 294 303 309 306 303 305 306 306 301 310 317 312 303 291 287 291 291 278 281 272 270
238 238 235 234 233 231 227 224 220 214 212 212 213 215 220 234 236 241 243 248 267 282 294 297 305 311 308 306 308 299 306 314 305 303 308 308 310 308 301 288 284 274 267
244 240 237 235 231 228 226 223 218 212 209 208 209 210 220 225 233 233 236 235 257 267 280 299 313 313 314 318 314 317 312 309 315 326 319 312 308 308 304 297 290 270 271
252 245 241 237 232 229 225 221 214 210 207 205 207 211 218 223 221 222 220 234 245 266 292 306 316 322 322 322 328 333 331 330 332 322 319 313 309 310 307 303 304 291 287
265 255 246 238 235 231 225 222 215 210 205 203 204 209 215 218 214 210 219 232 249 276 302 325 328 324 333 339 341 343 341 342 338 320 319 321 312 312 309 306 303 295 293
253 252 250 240 236 229 225 221 211 212 210 211 211 214 223 216 207 204 214 235 262 275 326 331 322 342 344 346 348 349 347 346 341 332 330 320 315 314 310 309 301 296 289
251 247 241 235 226 223 219 212 209 207 206 207 211 218 213 205 199 189 184 212 228 260 315 331 344 349 347 351 351 350 351 348 345 341 335 317 317 318 315 310 304 296 290
259 253 246 240 231 220 214 205 198 193 197 199 205 203 200 199 192 179 191 197 211 253 302 336 347 348 348 348 349 349 349 348 347 346 335 319 320 321 317 312 307 301 294
255 252 247 242 232 220 211 201 198 183 175 175 186 191 187 182 177 175 191 193 208 244 318 339 346 348 350 349 349 348 348 350 349 349 341 325 324 322 318 314 309 304 299
250 243 241 235 227 218 204 194 193 194 191 187 176 172 175 174 170 186 183 193 223 254 329 337 345 346 349 351 350 350 350 349 348 349 341 333 327 324 319 316 312 308 302
241 237 233 228 216 201 193 194 195 195 194 188 184 183 179 175 182 184 189 200 220 264 331 332 341 342 350 351 350 351 352 351 350 349 343 334 331 327 322 319 316 311 305
230 224 217 210 206 191 191 193 195 193 189 185 183 182 184 184 183 188 195 208 225 300 321 338 343 346 350 350 351 352 351 351 351 347 346 335 337 331 328 324 320 315 309
219 211 203 198 194 192 193 194 190 184 183 182 178 177 183 181 184 191 202 213 245 284 321 340 341 348 351 352 352 352 351 351 351 349 346 339 342 337 333 329 327 323 318
205 197 191 192 192 191 189 183 178 177 179 180 179 181 177 180 183 193 206 219 244 291 319 324 333 341 347 351 352 352 348 352 354 354 343 346 346 344 341 335 332 330 326
192 189 187 187 187 181 176 169 170 177 178 177 180 180 179 184 183 199 211 226 254 299 312 318 328 337 343 347 349 351 350 357 0 354 344 353 351 352 350 343 339 336 334
183 182 184 182 173 167 164 166 171 173 174 175 176 180 185 186 194 206 216 244 276 299 310 316 330 335 335 343 346 349 347 0 7 346 347 358 357 356 357 353 348 344 342
177 176 171 165 161 161 164 168 168 169 172 173 176 182 187 192 202 212 235 264 285 298 309 322 334 333 330 340 348 350 353 4 5 341 354 359 358 357 1 0 358 352 350
Wind_Speed_850mb
95 101 102 101 99 96 91 91 90 87 83 78 70 64 58 51 52 53 52 51 47 43 41 44 47 51 57 59 61 64 66 66 90 150 122 122 121 123 125 121 119 118 118
93 103 107 107 103 99 94 93 90 87 83 78 72 67 62 57 59 55 52 50 49 44 44 48 50 54 59 61 63 66 67 69 74 109 132 127 123 120 121 114 115 112 108
91 99 105 108 106 104 97 92 88 86 85 80 75 68 62 61 59 55 51 48 48 45 45 48 53 58 61 62 63 68 68 66 70 86 126 120 126 120 116 105 109 117 108
92 98 103 105 103 105 102 91 86 86 86 83 75 70 67 64 59 55 51 49 46 46 46 50 56 59 62 63 64 64 67 69 74 84 104 122 107 108 103 104 110 100 103
97 97 100 99 99 102 100 89 83 84 86 84 79 75 72 66 58 52 50 49 45 45 46 51 56 57 58 56 55 61 64 73 78 83 94 96 106 100 90 98 101 112 108
99 98 98 98 99 102 96 91 86 86 88 88 84 79 71 62 54 52 52 46 47 44 47 52 55 56 54 54 52 56 61 73 85 89 98 99 112 102 102 98 99 104 118
99 97 96 94 98 98 93 91 88 91 89 92 86 77 68 58 52 50 48 51 44 44 47 51 55 53 52 59 64 62 66 70 75 87 106 111 114 111 103 108 103 108 119
91 93 93 93 94 93 91 90 89 89 92 95 87 77 66 53 53 50 52 44 41 43 44 48 52 50 50 60 64 71 79 88 92 87 94 108 109 115 107 111 118 118 129
81 88 92 90 91 93 92 91 90 92 96 97 83 75 64 57 54 56 48 41 39 41 41 44 46 49 58 52 61 79 94 97 80 78 83 87 91 96 96 99 108 98 109
72 80 84 88 91 92 91 93 92 89 95 91 81 72 58 52 61 51 45 36 37 37 41 44 47 51 49 50 63 77 92 96 86 94 97 93 106 116 85 78 91 97 99
72 74 80 83 86 86 89 92 91 93 100 92 81 70 53 62 52 50 39 36 30 32 38 46 46 46 45 55 55 66 73 78 87 98 92 86 87 84 81 69 77 90 97
66 69 75 80 84 87 86 93 91 99 101 90 80 66 62 58 54 44 39 26 24 29 35 37 40 40 50 54 54 57 58 63 69 79 81 82 84 84 81 82 78 93 87
60 63 69 76 80 83 86 93 94 104 101 90 78 65 61 56 48 41 29 24 25 22 23 25 33 40 45 47 49 53 55 59 64 73 80 78 83 91 90 89 87 74 83
54 62 67 72 76 79 84 91 96 108 100 91 78 71 61 56 46 34 27 22 18 17 15 20 29 35 38 47 53 55 57 59 62 67 79 79 86 90 88 82 84 78 86
72 72 72 76 79 82 88 97 106 106 93 78 74 59 65 57 45 35 25 15 14 12 11 19 25 33 43 49 56 60 62 65 69 71 81 79 87 92 88 82 76 86 87
77 75 82 86 89 92 96 102 104 102 90 79 60 62 57 42 42 31 26 25 19 7 11 17 26 35 43 52 61 68 71 72 75 79 85 76 92 91 91 90 85 78 80
88 81 86 93 88 91 96 106 110 91 84 78 69 63 54 47 36 29 25 21 14 5 10 18 26 34 41 50 58 66 75 78 83 85 90 81 92 99 95 91 82 77 78
91 87 90 95 92 89 95 104 103 97 82 65 60 60 56 46 37 29 28 22 12 8 11 18 25 32 39 48 57 66 73 80 86 89 94 84 95 102 98 91 83 79 80
90 87 91 91 87 87 96 101 100 91 84 80 68 54 52 42 38 34 30 20 17 10 10 17 24 30 37 47 55 64 70 80 85 90 93 84 104 102 99 91 87 85 82
79 82 85 85 79 89 101 107 99 91 85 76 72 64 62 59 47 36 28 20 16 5 9 15 21 28 35 45 54 64 71 79 86 88 90 90 110 104 98 95 90 90 85
76 78 77 74 73 81 96 107 99 87 71 70 64 57 52 46 40 32 23 19 11 6 11 15 23 30 35 41 52 61 67 76 83 86 87 103 116 108 102 95 94 86 84
67 70 73 79 83 89 101 101 89 75 71 68 62 55 53 45 37 29 24 15 9 9 13 17 23 31 37 42 49 58 65 74 81 83 89 116 115 111 106 102 95 92 86
62 68 76 78 83 97 97 84 75 70 68 64 62 55 50 45 38 28 21 14 12 10 15 19 23 27 33 36 41 52 60 69 74 78 96 115 113 117 114 106 99 97 94
60 67 73 81 84 85 82 76 71 68 67 62 57 48 44 40 32 28 21 16 11 12 17 22 25 30 33 37 39 44 53 57 70 80 101 108 111 121 117 110 104 107 98
57 64 67 74 81 81 74 70 70 67 62 58 53 47 42 35 30 25 18 14 11 15 19 22 26 29 32 36 39 42 51 54 71 82 94 106 113 117 118 111 112 109 99
50 56 70 77 75 71 68 70 66 61 57 53 49 44 37 32 28 20 15 14 16 20 22 25 28 30 31 35 39 42 49 57 68 81 90 105 113 114 116 115 119 111 106
Wind_Direction_850mb
238 237 236 236 235 237 239 238 237 234 233 232 232 234 238 245 254 261 268 274 276 279 284 286 290 294 295 295 294 293 290 285 282 294 294 299 300 301 302 304 305 303 299
243 241 239 238 238 238 238 237 235 233 232 231 232 232 236 242 251 257 263 270 274 279 283 287 292 295 296 298 299 297 294 294 285 291 300 301 302 304 307 304 306 307 302
245 244 241 241 239 239 239 237 234 231 231 230 230 232 236 242 248 255 261 267 273 279 284 290 296 298 299 302 303 301 300 294 289 288 297 302 305 305 303 298 301 304 300
246 243 241 241 241 240 240 235 232 231 230 229 228 230 234 241 247 254 260 267 272 279 286 293 297 299 302 303 303 299 300 298 294 283 283 291 291 296 296 295 297 294 295
245 242 241 241 241 240 238 235 232 230 229 227 225 227 232 238 244 250 260 268 273 280 290 296 297 300 302 305 295 293 296 295 289 282 279 282 286 289 289 294 292 294 290
244 244 241 239 238 238 236 232 229 228 226 224 224 226 231 237 242 250 259 266 272 283 293 296 299 302 304 305 298 288 287 290 288 286 285 282 282 282 286 284 285 288 288
243 241 239 239 236 235 233 229 226 225 223 222 222 225 231 235 242 252 266 267 277 287 294 297 300 302 307 315 311 295 294 290 285 287 286 283 284 286 286 284 282 281 280
240 240 238 235 234 233 230 227 225 224 222 220 219 224 227 230 241 255 258 265 275 285 289 299 302 310 315 305 306 304 302 299 296 293 287 288 286 288 285 283 283 278 280
238 239 238 234 233 231 228 226 224 222 218 217 217 221 222 230 242 246 254 264 273 280 294 299 307 310 309 304 304 305 304 305 301 297 293 286 284 284 283 284 281 278 274
240 239 236 234 233 232 229 225 222 219 218 216 216 218 219 233 240 246 248 252 266 285 294 303 309 306 303 305 306 306 301 310 317 312 303 291 287 291 291 278 281 272 270
238 238 235 234 233 231 227 224 220 214 212 212 213 215 220 234 236 241 243 248 267 282 294 297 305 311 308 306 308 299 306 314 305 303 308 308 310 308 301 288 284 274 267
244 240 237 235 231 228 226 223 218 212 209 208 209 210 220 225 233 233 236 235 257 267 280 299 313 313 314 318 314 317 312 309 315 326 319 312 308 308 304 297 290 270 271
252 245 241 237 232 229 225 221 214 210 207 205 207 211 218 223 221 222 220 234 245 266 292 306 316 322 322 322 328 333 331 330 332 322 319 313 309 310 307 303 304 291 287
265 255 246 238 235 231 225 222 215 210 205 203 204 209 215 218 214 210 219 232 249 276 302 325 328 324 333 339 341 343 341 342 338 320 319 321 312 312 309 306 303 295 293
253 252 250 240 236 229 225 221 211 212 210 211 211 214 223 216 207 204 214 235 262 275 326 331 322 342 344 346 348 349 347 346 341 332 330 320 315 314 310 309 301 296 289
251 247 241 235 226 223 219 212 209 207 206 207 211 218 213 205 199 189 184 212 228 260 315 331 344 349 347 351 351 350 351 348 345 341 335 317 317 318 315 310 304 296 290
259 253 246 240 231 220 214 205 198 193 197 199 205 203 200 199 192 179 191 197 211 253 302 336 347 348 348 348 349 349 349 348 347 346 335 319 320 321 317 312 307 301 294
255 252 247 242 232 220 211 201 198 183 175 175 186 191 187 182 177 175 191 193 208 244 318 339 346 348 350 349 349 348 348 350 349 349 341 325 324 322 318 314 309 304 299
250 243 241 235 227 218 204 194 193 194 191 187 176 172 175 174 170 186 183 193 223 254 329 337 345 346 349 351 350 350 350 349 348 349 341 333 327 324 319 316 312 308 302
241 237 233 228 216 201 193 194 195 195 194 188 184 183 179 175 182 184 189 200 220 264 331 332 341 342 350 351 350 351 352 351 350 349 343 334 331 327 322 319 316 311 305
230 224 217 210 206 191 191 193 195 193 189 185 183 182 184 184 183 188 195 208 225 300 321 338 343 346 350 350 351 352 351 351 351 347 346 335 337 331 328 324 320 315 309
219 211 203 198 194 192 193 194 190 184 183 182 178 177 183 181 184 191 202 213 245 284 321 340 341 348 351 352 352 352 351 351 351 349 346 339 342 337 333 329 327 323 318
205 197 191 192 192 191 189 183 178 177 179 180 179 181 177 180 183 193 206 219 244 291 319 324 333 341 347 351 352 352 348 352 354 354 343 346 346 344 341 335 332 330 326
192 189 187 187 187 181 176 169 170 177 178 177 180 180 179 184 183 199 211 226 254 299 312 318 328 337 343 347 349 351 350 357 0 354 344 353 351 352 350 343 339 336 334
183 182 184 182 173 167 164 166 171 173 174 175 176 180 185 186 194 206 216 244 276 299 310 316 330 335 335 343 346 349 347 0 7 346 347 358 357 356 357 353 348 344 342
177 176 171 165 161 161 164 168 168 169 172 173 176 182 187 192 202 212 235 264 285 298 309 322 334 333 330 340 348 350 353 4 5 341 354 359 358 357 1 0 358 352 350